Weather in Ilyinskiy

Russia / Republic of Karelia     61°00′52″N   32°40′03″E
temp.,
°C
wind,
m/s
gust,
m/s
humid.,
%
clouds,
%
prec.,
mm/h
press.,
hPa
HPBL,
m
28 july, wed
wed2800:00+16e389415 0.0 1016124
03:00+16ese498767 0.0 1015151
06:00+16e378391 0.0 1014128
09:00+21ese3562100 0.0 1013204
12:00+24ssw334897 0.0 1011765
15:00+23sw3553100 0.0 1010402
18:00+22nw2358100 0.0 100761
21:00+16wsw3794100 1.8 1008121
29 july, thu
thu2900:00+17ne239493 0.8 100648
03:00+16ese339571 0.8 100550
06:00+17se359693 0.1 1003154
09:00+18sw239275 0.4 1002309
12:00+19sw4584100 0.9 1002357
15:00+19wsw61079100 1.6 1001585
18:00+18sw3784100 0.1 1000237
21:00+16ssw47907 0.1 999121
30 july, fri
fri3000:00+17wsw4118414 0.0 999240
03:00+16wsw5138466 0.0 999344
06:00+16wsw5109016 0.0 999372
09:00+17sw588944 0.2 1000370
12:00+18sw597567 0.1 1000632
15:00+20ssw58595 0.1 9991083
18:00+18sw6107149 0.4 999584
21:00+16ssw36786 0.6 998118
31 july, sat
sat3100:00+15s5108594 0.4 997214
03:00+14s49926 0.6 996216
06:00+14s5119196 0.1 996451
09:00+15ssw688690 0.2 996650
12:00+14sse4894100 0.9 996590
15:00+17w58849 1.2 997641
18:00+17wsw47763 0.0 999567
21:00+16ssw358454 0.0 99995
1 august, sun
sun100:00+15sw35860 0.0 100076
03:00+15ssw34935 0.0 100063
06:00+15s369187 0.0 1000141
09:00+17s4790100 1.3 999355
12:00+17ssw699085 2.0 999513
15:00+19ssw610755 3.1 999713
18:00+18sw51076100 0.7 999566
21:00+16sw5139318 2.3 1000473